This demonstration page uses our WeatherBlox Daily Observations layout. Learn more.

Left ArrowRight Arrow

Hourly Observations for December 31, 2017

Temp ( °F °C ) Dew Point ( °F °C ) Humidity (%) Winds ( mph kmh ) Pressure ( in mb ) Visibility ( mi km ) Precip ( " mm )
12:53 am 00:53 Clear 34 1.1 26 -3.3 73 73 W 3 6 30.12 1020 10 16 0.00 0.00
1:53 am 01:53 Clear 33 0.6 25 -3.9 72 72 W 6 9 30.13 1020 10 16 0.00 0.00
2:53 am 02:53 Clear 33 0.6 25 -3.9 72 72 WNW 9 15 30.14 1021 10 16 0.00 0.00
3:53 am 03:53 Partly Cloudy 32 0 25 -3.9 75 75 N 8 13 30.16 1022 10 16 0.00 0.00
4:53 am 04:53 Clear 31 -0.6 24 -4.4 76 76 Calm 30.16 1021 10 16 0.00 0.00
5:53 am 05:53 Clear 31 -0.6 24 -4.4 76 76 NNW 3 6 30.18 1022 10 16 0.00 0.00
6:53 am 06:53 Cloudy 32 0 24 -4.4 73 73 WNW 3 6 30.18 1022 10 16 0.00 0.00
7:53 am 07:53 Cloudy 32 0 24 -4.4 73 73 NW 5 7 30.19 1023 10 16 0.00 0.00
8:53 am 08:53 Cloudy 33 0.6 25 -3.9 72 72 NW 5 7 30.22 1023 10 16 0.00 0.00
9:53 am 09:53 Cloudy 34 1.1 25 -3.9 70 70 W 7 11 30.24 1024 10 16 0.00 0.00
10:53 am 10:53 Cloudy 34 1.1 24 -4.4 67 67 NNW 5 7 30.24 1024 10 16 0.00 0.00
11:53 am 11:53 Cloudy 34 1.1 26 -3.3 73 73 WNW 7 11 30.24 1024 9 14 0.00 0.00
12:53 pm 12:53 Cloudy 35 1.7 25 -3.9 67 67 WNW 9 15 30.22 1023 10 16 0.00 0.03
1:53 pm 13:53 Cloudy with Light Rain 35 1.7 24 -4.4 64 64 WNW 9 15 30.19 1023 10 16 0.00 0.03
2:53 pm 14:53 Cloudy 36 2.2 25 -3.9 64 64 NW 8 13 30.18 1022 10 16 0.00 0.03
3:53 pm 15:53 Cloudy 36 2.2 24 -4.4 62 62 WNW 9 15 30.19 1022 10 16 0.00 0.03
4:53 pm 16:53 Mostly Cloudy 35 1.7 23 -5 61 61 NNW 9 15 30.21 1023 10 16 0.00 0.00
5:53 pm 17:53 Cloudy 33 0.6 22 -5.6 64 64 NNW 9 15 30.23 1024 10 16 0.00 0.00
6:53 pm 18:53 Cloudy 31 -0.6 21 -6.1 67 67 NW 13 20 30.27 1025 10 16 0.00 0.00
7:53 pm 19:53 Partly Cloudy 29 -1.7 16 -8.9 58 58 NNW 8 13 30.29 1026 10 16 0.00 0.00
8:53 pm 20:53 Cloudy 30 -1.1 14 -10 51 51 NNW 12 19 30.29 1026 10 16 0.00 0.00
9:53 pm 21:53 Cloudy 29 -1.7 13 -10.6 51 51 N 13 20 30.30 1026 10 16 0.00 0.00
10:53 pm 22:53 Cloudy 28 -2.2 13 -10.6 53 53 NW 13 20 30.32 1027 10 16 0.00 0.00
11:33 pm 23:33 Cloudy 27 -2.8 12 -11.1 53 53 NNW 9 15 30.33 1027 10 16 0.00 0.00
11:53 pm 23:53 Cloudy 27 -2.8 11 -11.7 51 51 NNW 15 24 30.33 1027 10 16 0.00 0.00

Powered by AerisWeather